Regional Weather Roundup
Issued by NWS Grand Forks, ND

Home | Current Version | Previous Version | Text Only | Print | Product List | Glossary Off
Versions: 1 2 3 4 5 6 7 8 9 10 11 12 13 14 15 16 17 18 19 20 21 22 23 24 25 26 27 28 29 30 31 32 33 34 35 36 37 38 39 40 41 42 43 44 45 46 47 48 49 50

000
ASUS43 KFGF 171631
RWRFGF
PRAIRIE TO PINES  WEATHER ROUNDUP
NATIONAL WEATHER SERVICE EASTERN NORTH DAKOTA/GRAND FORKS ND
1100 AM CDT WED SEP 17 2014

 **SATELLITE DATA USED TO AUGMENT SKY COVER AT AUTOMATED STATIONS**
 *****  WEATHER ACROSS EASTERN NORTH DAKOTA  *****

CITY           SKY/WX    TMP DP  RH WIND       PRES   REMARKS
GRAND FORKS    MOSUNNY   59  50  72 N14       29.98R
GRAND FRKS AFB PTSUNNY   55  50  82 N15       30.01R
DEVILS LAKE    SUNNY     55  45  67 NE9       30.00R
FARGO          SUNNY     65  50  58 N6        29.95R
WAHPETON ARPT  SUNNY     63  50  63 NE5       29.96R
$$

 ***** WEATHER ACROSS CENTRAL AND WESTERN NORTH DAKOTA  *****

CITY           SKY/WX    TMP DP  RH WIND       PRES   REMARKS
BISMARCK       SUNNY     61  50  67 CALM      29.99R
MINOT          SUNNY     59  46  62 E7        29.99R
JAMESTOWN      SUNNY     63  50  62 N5        29.98R
MINOT AFB      SUNNY     57  48  71 E6        29.99R
GARRISON         N/A     63  49  60 E6        29.98R
WILLISTON      SUNNY     62  44  51 CALM      29.96S
DICKINSON      SUNNY     65  49  56 SE8       29.97R
HETTINGER      MOSUNNY   64  51  62 E9        29.98S
$$

 *****  OTHER AIRPORT OBSERVATIONS IN OUR AREA  *****

CITY           SKY/WX    TMP DP  RH WIND       PRES   REMARKS
WALHALLA         N/A     46  46 100 N13       30.07R
GRAFTON AIRPOR CLOUDY    48  48 100 N13G20    30.02R
VALLEY CITY AR FAIR      64  48  55 N8        29.98R
CANDO          CLOUDY    50  46  87 NE13      30.04R
CAVALIER APRT  CLOUDY    46  45  93 N12       30.05R
GWINNER        SUNNY     64  50  59 N8        29.98S
ROLLA          CLOUDY    46  46 100 NE10      30.06R
 ***** THE ABOVE OBSERVATIONS ARE NON NWS ARE NOT QUALITY
       CONTROLLED AND MAY MIS-REPORT RAIN FOR SNOW...
$$

  *****  WEATHER ACROSS NORTHERN MINNESOTA  *****

CITY           SKY/WX    TMP DP  RH WIND       PRES   REMARKS
FLAG ISLAND    CLOUDY    45  39  81 NE16      30.05R
WARROAD        CLOUDY    48  45  87 NE13G22   30.04R
ROSEAU         CLOUDY    52  45  76 E15       30.03R
HALLOCK          N/A     54  48  82 N10       30.03R
THF RVR FALLS  MOSUNNY   59  50  72 NE13      29.98R
BAUDETTE       PTSUNNY   54  44  69 NE9       30.02R
WASKISH        CLOUDY    54  48  82 N8        29.99R
CROOKSTON      SUNNY     59  46  63 N7        29.98R
$$
  *****  WEATHER ACROSS CENTRAL AND WEST MINNESOTA  *****

CITY           SKY/WX    TMP DP  RH WIND       PRES   REMARKS
FOSSTON        SUNNY     66  48  52 N6        29.96S
BEMIDJI        SUNNY     63  47  56 N6        29.96R
PARK RAPIDS    SUNNY     61  49  64 N5        29.95S
ELBOW LAKE     FAIR      64  54  71 CALM      29.95S
WADENA         SUNNY     64  54  68 NE7       29.95S
DETROIT LAKES  SUNNY     64  52  63 NE6       29.97R
MOORHEAD       SUNNY     64  54  68 NE5       29.96S
FERGUS FALLS   SUNNY     64  52  63 N5        29.95S
MORRIS MN      SUNNY     66  54  63 N3        29.94R
STAPLES        SUNNY     63  52  67 N6        29.96R
$$
  *****  WEATHER ELSEWHERE ACROSS MINNESOTA  *****

CITY           SKY/WX    TMP DP  RH WIND       PRES   REMARKS
DULUTH         MOSUNNY   64  46  52 W6        29.94S
INTRNTL FALLS  MOSUNNY   51  43  74 NE9       30.01R
ELY            CLOUDY    52  46  82 N5        29.97R
CLOQUET        SUNNY     63  46  55 W5        29.95S
WHEATON        SUNNY     61  52  72 NW6       29.97R
BRAINERD       SUNNY     62  51  67 N7        29.96R
HIBBING        CLOUDY    62  47  57 N3        29.94R
ALEXANDRIA     SUNNY     66  54  65 VRB5      29.95S
SAINT CLOUD    SUNNY     66  52  60 SW3       29.95S
MINNEAPOLIS    MOSUNNY   65  50  58 CALM      29.96R
$$

  *****  WEATHER ACROSS SOUTH DAKOTA  *****

CITY           SKY/WX    TMP DP  RH WIND       PRES   REMARKS
SIOUX FALLS    MOSUNNY   66  55  67 NE5       29.94R
BROOKINGS      NOT AVBL
WATERTOWN      SUNNY     66  54  65 N8        29.95R
HURON          SUNNY     64  55  72 CALM      29.94S
SISSETON         N/A     67  54  63 N12       29.94R
ABERDEEN       SUNNY     62  53  72 NE7       29.96S
MITCHELL       SUNNY     65  57  75 N3        29.94S
PIERRE         SUNNY     70  57  63 MISG      29.93R
MOBRIDGE       SUNNY     68  55  63 E7        29.94S
RAPID CITY     MOSUNNY   70  47  43 N7        29.98R
$$

  *****  SOME WEATHER IN NEARBY STATES *****

CITY           SKY/WX    TMP DP  RH WIND       PRES   REMARKS
GLASGOW MT     PTSUNNY   59  42  53 E17       29.88F
GREAT FALLS MT MOSUNNY   67  49  52 CALM      29.91S
CHEYENNE WY    MOSUNNY   75  42  30 VRB5      30.14S
SCOTTSBLUFF NE SUNNY     70  48  45 NW13      30.02R
OMAHA NE       MOSUNNY   68  58  70 SE3       29.94R
DES MOINES IA  MOSUNNY   67  57  70 SE3       29.97S
DAVENPORT IA   CLOUDY    62  50  64 S8        30.02S
CHICAGO IL     MOSUNNY   62  43  49 VRB3      30.03S
EAU CLAIRE WI  PTSUNNY   63  50  62 SW8       29.97S
LA CROSSE WI   MOSUNNY   61  50  67 S6        30.00S
$$

  *****  SOME NATIONAL WEATHER *****

CITY           SKY/WX    TMP DP  RH WIND       PRES   REMARKS
LA GUARDIA NY  MOSUNNY   70  40  33 VRB7      30.03F
RALEIGH NC     PTSUNNY   74  62  66 NE9G18    29.99F
ATLANTA GA     MOSUNNY   79  62  56 W9        29.97F
NEW ORLEANS LA PTSUNNY   84  72  67 N6        29.98S
OKLAHOMA CITY  PTSUNNY   84  68  58 SW12      29.96S
ALBUQUERQUE NM LGT RAIN  62  59  90 NW3       30.21R
SALT LAKE CITY MOSUNNY   79  44  28 SE14      29.98S
LOS ANGELES CA MOSUNNY   84  61  45 E5        29.75R
BOISE ID       CLOUDY    73  42  32 CALM      29.88R
SEATTLE WA     CLOUDY    62  56  80 N3        29.79S
$$

*** WEATHER ACROSS MANITOBA...SASKATCHEWAN AND ONTARIO ***
                ***ONTARIO***

CITY           SKY/WX    TMP DP  RH WIND       PRES   REMARKS
GERALDTON      PTSUNNY   37  30  75 NW6       30.06S
THUNDER BAY    CLOUDY    45  39  81 E9G17     30.05R
SIOUX LOOKOUT  LGT RAIN  39  37  93 NE3       30.07S
TORONTO        MOSUNNY   64  46  52 W12       29.99F
BIG TROUT LK   CLOUDY    36  21  55 N7G18     30.11S
PICKLE LAKE    PTSUNNY   39  25  56 VRB3      30.10S
DRYDEN         CLOUDY    41  37  87 NE9       30.06R
KENORA         DRIZZLE   41  39  93 NE8       30.07R
$$
                *** MANITOBA***

CITY           SKY/WX    TMP DP  RH WIND       PRES   REMARKS
BRANDON        CLOUDY    43  39  87 E15G21    30.09
DAUPHIN        CLOUDY    43  39  87 E9        30.13R
ISLAND LAKE    PTSUNNY   39  23  52 NW6       30.19R
PILOT MOUND      N/A     45  41  87 NE12        N/A
THE PAS        PTSUNNY   41  34  75 SE7       30.17S
THOMPSON       MOSUNNY   37  25  60 NE2       30.20S
WINNIPEG       CLOUDY    43  39  87 NE12      30.10R
CHURCHILL      CLOUDY    32  23  69 NW14G24   30.14S WCI  22
GILLAM         CLOUDY    34  23  64 N14       30.18  WCI  24
$$
                ***SASKATCHEWAN***

CITY           SKY/WX    TMP DP  RH WIND       PRES   REMARKS
ESTEVAN        CLOUDY    46  46 100 E9        30.02R
KINDERSLEY     MOSUNNY   52  45  76 E13       29.91S
LLOYDMINSTER   CLOUDY    46  45  93 SE16      29.88F FOG
PRINCE ALBERT  CLOUDY    43  41  93 SE13G22   30.04
REGINA         CLOUDY    48  46  93 E14G21    29.99S
YORKTON        CLOUDY    43  39  87 E13G18    30.08R
N. BATTLEFORD  CLOUDY    45  43  93 E16G23    29.98R FOG
LA RONGE       CLOUDY    41  36  81 SE16G23   30.07F
SASKATOON      CLOUDY    46  45  93 SE15      30.00R
SWIFT CURRENT  SUNNY     66  48  52 S7        29.89F
$$
NOTE: THESE ARE AUTOMATED STATIONS WITH LIMITED QUALITY CONTROL
      "FAIR" INDICATES FEW OR NO CLOUDS BELOW 12,000 FEET WITH NO
      SIGNIFICANT WEATHER AND/OR OBSTRUCTIONS TO VISIBILITY.
      SKY/WX - SKY CONDITION AND SIGNIFICANT WEATHER.
      TMP - AIR TEMPERATURE.    DP   - DEWPOINT TEMPERATURE.
      RH  - RELATIVE HUMIDITY.  PRES - PRESSURE.
      HX  - HEAT INDEX.         WCI  - WIND CHILL INDEX.
$


USA.gov is the U.S. government's official web portal to all federal, state and local government web resources and services.